[[{"header":{"parameterUnit":"m.s-1","parameterCategory":2,"la1":30.2991,"la2":30.254,"lo1":-89.0895,"lo2":-89.0444,"dy":0.0017,"dx":0.0017,"nx":28,"ny":28,"refTime":"2023-08-30T03:00:00:Z","depth":"0","parameterNumber":2,"parameterNumberName":"U-component_of_CURRENTS"},"data":[0,0,0,0,0,0,0,0,0,0,0,0,0,0,0,0,0,0,0,0,0,0,0,0,0,0,0,0,0,0,0,0,0,0,0,0,0,0,0,0,0,0,0,0,0,0,0,0,0,0,0,0,0,0,0,0,0,0,0.3051,0.3051,0,0.3014,0.3014,0.3013,0.3,0.3001,0.3001,0.3002,0.2957,0.2955,0.2954,0,0,0,0,0,0,0,0,0,0,0,0,0,0.3046,0.3046,0.3051,0.3051,0.3051,0.3014,0.3014,0.3013,0.3,0.3001,0.3002,0.3002,0.2958,0.2956,0.2954,0,0,0,0,0,0,0,0,0,0,0,0,0,0.3028,0.3046,0.3051,0.3044,0.3043,0.3015,0.3014,0.3012,0.3,0.3001,0.3002,0.3003,0.2958,0.2956,0.2953,0.292,0,0,0.2945,0.2944,0,0,0,0,0,0,0,0,0.3029,0.3028,0.3045,0.3044,0.3043,0.3017,0.2995,0.2983,0.3,0.3011,0.3002,0.3003,0.2979,0.2974,0.2959,0.2918,0.2916,0.2945,0.2944,0.2942,0.2942,0,0,0,0,0,0,0,0.3031,0.3029,0.3032,0.3045,0.3044,0.3021,0.3019,0.2992,0.2987,0.3011,0.3011,0.3014,0.2978,0.2962,0.2958,0.2916,0.2945,0.2943,0.2941,0.294,0.2918,0.2919,0,0,0,0,0,0,0.3047,0.303,0.3033,0.3031,0.3043,0.3021,0.3019,0.3021,0.2987,0.2985,0.3013,0.3013,0.2966,0.2961,0.2957,0.2968,0.2942,0.294,0.2939,0.2917,0.2918,0.2919,0,0,0,0,0,0,0.3047,0.3047,0.3035,0.3034,0.3031,0.3021,0.3022,0.302,0.3012,0.299,0.2987,0.301,0.2966,0.296,0.2948,0.2964,0.2939,0.2936,0.2916,0.2917,0.2919,0.2956,0,0,0,0,0,0,0.3047,0.3047,0.3051,0.3035,0.3032,0.3028,0.3022,0.3018,0.3015,0.3015,0.2986,0.2983,0.2966,0.2952,0.2946,0.296,0.2934,0.2914,0.2916,0.2918,0.2954,0.2959,0.2963,0,0,0,0,0,0.3046,0.3043,0.3051,0.3052,0.3039,0.3028,0.3024,0.3016,0.3014,0.3011,0.2999,0.2984,0.296,0.295,0.2942,0.2957,0.2914,0.2916,0.2918,0.2952,0.2958,0.2963,0,0,0,0,0,0,0.3039,0.3042,0.305,0.3048,0.3048,0.3028,0.3022,0.3018,0.3003,0.3002,0.2983,0.2978,0.298,0.2961,0.2951,0.2959,0.2939,0.294,0.2968,0.2973,0.2978,0.2998,0.2932,0,0,0,0,0,0.3043,0.3042,0.3045,0.3045,0.3047,0.3036,0.3031,0.3026,0.3013,0.3007,0.2991,0.298,0.2979,0.2971,0.2962,0.295,0.2968,0.296,0.2964,0.2968,0.2981,0.3026,0.3036,0.2926,0.2926,0.2926,0,0,0.3038,0.3042,0.3041,0.3044,0.304,0.3036,0.3034,0.3026,0.3026,0.3004,0.2994,0.2992,0.2982,0.2982,0.2981,0.2968,0.3011,0.2971,0.2974,0.2985,0.3029,0.304,0.305,0.2928,0.2927,0.2927,0,0,0.302,0.3037,0.3026,0.3031,0.3034,0.3034,0.3038,0.3026,0.3027,0.3017,0.3017,0.3029,0.3,0.3012,0.3011,0.3034,0.3038,0.303,0.306,0.3104,0.3113,0.3122,0.3166,0.3178,0.3027,0.3027,0.3027,0,0.3018,0.301,0.3022,0.3017,0.3025,0.3037,0.3033,0.3034,0.302,0.3035,0.3022,0.3033,0.302,0.3049,0.3062,0.3045,0.3071,0.3037,0.3111,0.312,0.3128,0.3171,0.3184,0.3029,0.3029,0.3029,0.3028,0,0.2984,0.2992,0.2988,0.2995,0.3004,0.3003,0.3021,0.303,0.3038,0.3048,0.3078,0.3071,0.3086,0.3086,0.3076,0.3133,0.3134,0.3116,0.3097,0.3142,0.3184,0.3197,0.3032,0.3031,0.3031,0.303,0,0,0.2945,0.2963,0.2962,0.2974,0.2997,0.2999,0.3022,0.3051,0.3091,0.3083,0.3132,0.3131,0.315,0.3153,0.3152,0.3186,0.3264,0.3177,0.3179,0.3223,0.337,0.3359,0.3372,0.326,0.3263,0.3264,0.3379,0,0.2919,0.2912,0.2931,0.2939,0.2944,0.2986,0.3015,0.3049,0.3093,0.3147,0.3166,0.3209,0.3169,0.3197,0.3221,0.3266,0.3299,0.3235,0.3319,0.3322,0.3309,0.3387,0.3311,0.3405,0.3391,0.3393,0.3395,0,0.2871,0.2882,0.2882,0.2935,0.2944,0.2957,0.3038,0.3069,0.3159,0.3202,0.3254,0.3281,0.3338,0.3299,0.338,0.3343,0.3361,0.3382,0.3387,0.3374,0.3336,0.3357,0.3429,0.337,0.3415,0.3413,0.3412,0,0.2824,0.2849,0.2855,0.2867,0.2923,0.2947,0.299,0.3082,0.3145,0.3257,0.3319,0.3379,0.3427,0.3458,0.3484,0.3449,0.3579,0.3533,0.3537,0.3536,0.3487,0.3478,0.3513,0.3593,0.3593,0.3592,0.3592,0,0.2783,0.2787,0.2837,0.2837,0.2876,0.2927,0.3001,0.3067,0.3192,0.327,0.3345,0.3415,0.3472,0.3538,0.3541,0.3592,0.3622,0.3572,0.3576,0.3498,0.3489,0.3446,0.3394,0.3597,0.3596,0.3595,0.3594,0,0.2719,0.2748,0.2763,0.2825,0.2849,0.2879,0.3001,0.307,0.3189,0.33,0.334,0.3478,0.3569,0.3619,0.3701,0.3674,0.3629,0.3719,0.3627,0.3617,0.3548,0.3501,0.3375,0.3272,0.3756,0.3757,0.3757,0,0.2679,0.268,0.2744,0.2768,0.2795,0.2859,0.2916,0.3051,0.3136,0.3316,0.3365,0.3509,0.3597,0.3738,0.3748,0.3797,0.365,0.3726,0.3637,0.3565,0.3515,0.3324,0.3231,0.3591,0.359,0.359,0.3589,0,0.2617,0.2645,0.267,0.2727,0.2778,0.2836,0.2926,0.2995,0.3147,0.3237,0.3381,0.3479,0.3646,0.3685,0.3759,0.3761,0.3566,0.3711,0.3663,0.3423,0.3191,0.3086,0.3497,0.3582,0.3583,0.3584,0.3584,0.3584,0.2579,0.2591,0.2641,0.2688,0.2747,0.2801,0.2814,0.2918,0.3018,0.3111,0.3282,0.3373,0.3548,0.3666,0.3649,0.3616,0.3525,0.3532,0.3495,0.3318,0.3165,0.3567,0.3632,0.3633,0.3634,0.3635,0.3635,0,0.2531,0.2561,0.2603,0.265,0.2675,0.2731,0.2807,0.2795,0.2836,0.2963,0.3058,0.3243,0.3329,0.3441,0.3528,0.3436,0.3231,0.3342,0.3068,0.2998,0.3411,0.3354,0.333,0.333,0.333,0.333,0.333,0.333,0.2512,0.2529,0.2554,0.2569,0.2592,0.2572,0.2582,0.2569,0.2627,0.2676,0.2762,0.2888,0.3186,0.3354,0.3351,0.3276,0.302,0.2886,0.283,0.3169,0.3183,0.3196,0.3132,0.3061,0.3061,0.2304,0.2299,0.2295]},{"header":{"parameterUnit":"m.s-1","parameterCategory":2,"la1":30.2991,"la2":30.254,"lo1":-89.0895,"lo2":-89.0444,"dy":0.0017,"dx":0.0017,"nx":28,"ny":28,"refTime":"2023-08-30T03:00:00:Z","depth":"0","parameterNumber":3,"parameterNumberName":"V-component_of_CURRENTS"},"data":[0,0,0,0,0,0,0,0,0,0,0,0,0,0,0,0,0,0,0,0,0,0,0,0,0,0,0,0,0,0,0,0,0,0,0,0,0,0,0,0,0,0,0,0,0,0,0,0,0,0,0,0,0,0,0,0,0,0,-0.0031,-0.0031,0,-0.0063,-0.0063,-0.0064,-0.0096,-0.0097,-0.0097,-0.0097,-0.0181,-0.0183,-0.0185,0,0,0,0,0,0,0,0,0,0,0,0,0,-0.0037,-0.0036,-0.0031,-0.0031,-0.0031,-0.0063,-0.0063,-0.0064,-0.0096,-0.0097,-0.0097,-0.0097,-0.0181,-0.0183,-0.0185,0,0,0,0,0,0,0,0,0,0,0,0,0,-0.0049,-0.0036,-0.0031,-0.005,-0.0052,-0.0063,-0.0063,-0.0064,-0.0096,-0.0097,-0.0097,-0.0098,-0.018,-0.0183,-0.0186,-0.0195,0,0,-0.0195,-0.0196,0,0,0,0,0,0,0,0,-0.0049,-0.0049,-0.0047,-0.0049,-0.0051,-0.0075,-0.0096,-0.011,-0.0096,-0.0081,-0.0097,-0.0098,-0.0149,-0.0154,-0.0161,-0.0199,-0.0203,-0.0195,-0.0197,-0.0198,-0.0199,0,0,0,0,0,0,0,-0.0048,-0.0048,-0.0045,-0.0047,-0.005,-0.007,-0.0072,-0.0099,-0.0115,-0.0083,-0.0085,-0.0085,-0.0151,-0.0158,-0.0163,-0.0204,-0.0195,-0.0197,-0.0199,-0.02,-0.0249,-0.0249,0,0,0,0,0,0,-0.0038,-0.0047,-0.0044,-0.0046,-0.0049,-0.0069,-0.0072,-0.0068,-0.0113,-0.012,-0.0085,-0.0087,-0.0153,-0.016,-0.0167,-0.0168,-0.0198,-0.0201,-0.0202,-0.025,-0.0249,-0.0249,0,0,0,0,0,0,-0.0038,-0.0037,-0.0043,-0.0047,-0.0048,-0.0068,-0.0064,-0.0068,-0.0074,-0.0114,-0.0122,-0.0086,-0.0154,-0.0162,-0.0181,-0.0172,-0.0202,-0.0205,-0.025,-0.025,-0.0249,-0.0178,0,0,0,0,0,0,-0.0038,-0.0037,-0.0029,-0.0045,-0.0048,-0.0039,-0.0064,-0.0069,-0.0073,-0.0076,-0.0117,-0.0126,-0.0155,-0.0176,-0.0183,-0.0176,-0.0207,-0.0251,-0.025,-0.0249,-0.0181,-0.0175,-0.017,0,0,0,0,0,-0.0038,-0.0018,-0.0028,-0.0028,-0.0037,-0.0038,-0.0041,-0.0059,-0.0072,-0.0067,-0.0095,-0.0124,-0.0176,-0.0178,-0.0187,-0.018,-0.0251,-0.025,-0.0249,-0.0183,-0.0176,-0.017,0,0,0,0,0,0,-0.0015,-0.002,-0.0032,-0.0015,-0.0024,-0.0043,-0.0037,-0.0053,-0.0071,-0.0075,-0.0117,-0.0127,-0.0141,-0.0169,-0.017,-0.0192,-0.0219,-0.022,-0.0166,-0.016,-0.0154,-0.0135,-0.0209,0,0,0,0,0,-0.0007,0.0005,-0.0008,0.0005,0.0004,-0.0018,-0.0021,-0.0033,-0.0051,-0.006,-0.0089,-0.012,-0.0144,-0.0157,-0.0184,-0.0194,-0.022,-0.0197,-0.0191,-0.0186,-0.0177,-0.0207,-0.0203,-0.0245,-0.0245,-0.0245,0,0,0.0005,0.0004,0.001,0.001,0.0001,0.0011,-0.0021,-0.0019,-0.0014,-0.0067,-0.0069,-0.0102,-0.0142,-0.0153,-0.0162,-0.0175,-0.0187,-0.0185,-0.018,-0.0174,-0.0205,-0.0201,-0.0197,-0.0245,-0.0245,-0.0245,0,0,0.004,0.0034,0.0056,0.0053,0.0047,0.0035,0.0039,0.0022,0.0011,0.0003,-0.0033,-0.0057,-0.0094,-0.0118,-0.0136,-0.0117,-0.0157,-0.0127,-0.0083,-0.0112,-0.0108,-0.0105,-0.0127,-0.0127,-0.0123,-0.0123,-0.0123,0,0.0052,0.0079,0.0062,0.008,0.0086,0.0051,0.0074,0.006,0.0038,0.0036,0.0011,-0.0037,-0.0077,-0.0086,-0.0081,-0.0104,-0.0122,-0.0104,-0.0103,-0.0101,-0.01,-0.0123,-0.0123,-0.012,-0.012,-0.0121,-0.0121,0,0.0102,0.012,0.0134,0.0146,0.0149,0.0162,0.0143,0.0139,0.0117,0.0102,0.0085,0.0032,0.0005,-0.0015,-0.0044,-0.0048,-0.0065,-0.0092,-0.0117,-0.0091,-0.0117,-0.0119,-0.0115,-0.0116,-0.0117,-0.0118,0,0,0.0141,0.0165,0.017,0.0188,0.0185,0.0195,0.0203,0.0205,0.0222,0.0177,0.0191,0.0133,0.0102,0.008,0.0036,0.0007,-0.0005,-0.003,-0.0034,-0.0045,-0.0058,-0.0062,-0.0065,-0.003,-0.003,-0.003,-0.0078,0,0.0186,0.0238,0.0236,0.0281,0.0306,0.0281,0.0293,0.0287,0.0277,0.0279,0.0215,0.0206,0.0139,0.013,0.009,0.0025,-0.0008,0.0011,-0.0087,-0.009,-0.0092,-0.0067,-0.0031,-0.0069,-0.008,-0.0081,-0.0081,0,0.0239,0.0268,0.0322,0.0353,0.0362,0.0377,0.0402,0.0414,0.0401,0.0392,0.0367,0.0318,0.0271,0.0207,0.0105,0.0123,0.0041,-0.0021,-0.0025,-0.0053,-0.0097,-0.01,-0.0073,-0.0218,-0.0085,-0.0084,-0.0084,0,0.0283,0.033,0.0377,0.0387,0.0412,0.0428,0.0442,0.0448,0.0484,0.0471,0.0489,0.0416,0.0394,0.0279,0.0149,0.0128,0.0039,-0.0012,-0.0095,-0.0096,-0.0097,-0.0098,-0.0217,-0.0089,-0.0089,-0.0089,-0.0088,0,0.0335,0.0373,0.04,0.0425,0.0484,0.0481,0.0548,0.0549,0.0581,0.064,0.0554,0.0585,0.0412,0.0338,0.0194,0.006,0.0069,-0.0077,-0.0106,-0.0071,-0.007,-0.0223,-0.0322,-0.009,-0.009,-0.009,-0.0089,0,0.0378,0.0394,0.0453,0.049,0.0506,0.0552,0.0627,0.0683,0.0692,0.0768,0.0767,0.0722,0.063,0.0454,0.0284,0.0138,-0.0092,-0.0064,-0.0006,-0.0028,-0.0252,-0.0348,-0.0499,-0.058,-0.0167,-0.0167,-0.0168,0,0.0406,0.044,0.0506,0.0552,0.0573,0.0642,0.0697,0.0735,0.0814,0.0865,0.0914,0.0849,0.0848,0.06,0.033,0.0086,-0.0083,-0.0065,-0.0112,-0.0248,-0.0378,-0.0443,-0.0505,-0.0087,-0.0087,-0.0087,-0.0086,0,0.0462,0.0482,0.0533,0.0628,0.0694,0.0787,0.0873,0.0953,0.1011,0.1088,0.1186,0.1191,0.0954,0.0754,0.04,0.0206,-0.0167,-0.0067,-0.0225,-0.0335,-0.0396,-0.0491,-0.0073,-0.0083,-0.0084,-0.0084,-0.0084,-0.0084,0.0506,0.0556,0.0624,0.0716,0.0805,0.0929,0.1023,0.1139,0.1286,0.1414,0.1399,0.1456,0.1129,0.0674,0.0377,-0.0124,-0.0158,-0.0272,-0.0379,-0.0432,-0.0508,-0.0078,-0.0113,-0.0114,-0.0114,-0.0114,-0.0115,0,0.0565,0.0623,0.0711,0.083,0.0945,0.0975,0.1143,0.1256,0.1451,0.1578,0.1675,0.1591,0.1161,0.0689,0.0022,-0.0348,-0.0504,-0.0561,-0.0651,-0.0705,-0.0326,-0.0319,-0.0379,-0.0379,-0.0379,-0.0379,-0.0378,-0.0378,0.06,0.0692,0.0738,0.0928,0.102,0.1183,0.1288,0.1462,0.1604,0.1808,0.1888,0.1911,0.1614,0.041,-0.0437,-0.067,-0.0929,-0.0979,-0.1138,-0.0884,-0.0865,-0.0847,-0.0863,-0.1037,-0.1038,-0.1445,-0.145,-0.1453]}],[{"header":{"parameterUnit":"m.s-1","parameterCategory":2,"la1":30.2991,"la2":30.254,"lo1":-89.0895,"lo2":-89.0444,"dy":0.0017,"dx":0.0017,"nx":28,"ny":28,"refTime":"2023-08-30T03:00:00:Z","depth":"2","parameterNumber":2,"parameterNumberName":"U-component_of_CURRENTS"},"data":[0,0,0,0,0,0,0,0,0,0,0,0,0,0,0,0,0,0,0,0,0,0,0,0,0,0,0,0,0,0,0,0,0,0,0,0,0,0,0,0,0,0,0,0,0,0,0,0,0,0,0,0,0,0,0,0,0,0,0.2476,0.2477,0,0.2494,0.2494,0.2494,0.2505,0.2505,0.2505,0.2506,0.251,0.251,0.2509,0,0,0,0,0,0,0,0,0,0,0,0,0,0.2421,0.2421,0.2476,0.2477,0.2477,0.2494,0.2494,0.2494,0.2505,0.2505,0.2505,0.2506,0.251,0.251,0.2509,0,0,0,0,0,0,0,0,0,0,0,0,0,0.2439,0.2422,0.2476,0.2487,0.2488,0.2494,0.2494,0.2494,0.2505,0.2505,0.2506,0.2506,0.251,0.251,0.2509,0.2497,0,0,0.2508,0.2508,0,0,0,0,0,0,0,0,0.2438,0.2441,0.2485,0.2486,0.2488,0.2501,0.2476,0.2495,0.2504,0.2495,0.2506,0.2506,0.2507,0.2507,0.2505,0.2497,0.2497,0.2508,0.2508,0.2508,0.2508,0,0,0,0,0,0,0,0.2437,0.244,0.248,0.2485,0.2487,0.2481,0.2484,0.2479,0.2495,0.2496,0.2497,0.2505,0.2508,0.2505,0.2505,0.2497,0.2508,0.2508,0.2508,0.2508,0.2545,0.2546,0,0,0,0,0,0,0.2443,0.2439,0.2479,0.2481,0.2468,0.2482,0.2485,0.2493,0.2495,0.2497,0.2504,0.2505,0.2505,0.2505,0.2505,0.2543,0.2508,0.2508,0.2508,0.2544,0.2545,0.2546,0,0,0,0,0,0,0.2441,0.2446,0.2479,0.2463,0.2467,0.2483,0.2491,0.2493,0.2506,0.2503,0.2504,0.2517,0.2506,0.2506,0.2519,0.2541,0.2508,0.2507,0.2542,0.2544,0.2546,0.2584,0,0,0,0,0,0,0.244,0.2445,0.2454,0.2463,0.2468,0.2497,0.2491,0.2493,0.251,0.2512,0.2514,0.2514,0.2506,0.252,0.2519,0.254,0.2507,0.2541,0.2543,0.2545,0.2582,0.2587,0.2592,0,0,0,0,0,0.2437,0.245,0.2455,0.246,0.248,0.2498,0.25,0.251,0.2511,0.2521,0.2524,0.2514,0.2534,0.252,0.2519,0.2541,0.254,0.2542,0.2545,0.2579,0.2586,0.2592,0,0,0,0,0,0,0.243,0.2452,0.2458,0.2477,0.2493,0.2501,0.2513,0.2517,0.2526,0.253,0.2522,0.2523,0.2548,0.2538,0.2523,0.256,0.2538,0.254,0.2565,0.2571,0.2576,0.2586,0.2507,0,0,0,0,0,0.2433,0.245,0.2468,0.2484,0.2494,0.2505,0.2514,0.2522,0.2531,0.2536,0.2536,0.2542,0.2555,0.2558,0.2565,0.2575,0.2587,0.2592,0.2597,0.2601,0.261,0.2649,0.2659,0.2555,0.2555,0.2555,0,0,0.2433,0.245,0.2459,0.2485,0.2496,0.251,0.2511,0.2533,0.2546,0.2534,0.2551,0.2561,0.2564,0.2584,0.2594,0.2579,0.2639,0.2605,0.2608,0.2615,0.2653,0.2663,0.2672,0.2557,0.2557,0.2556,0,0,0.2438,0.2461,0.2471,0.2488,0.2514,0.2524,0.2535,0.2551,0.2563,0.2579,0.2583,0.2607,0.2611,0.2625,0.263,0.2667,0.267,0.2672,0.2699,0.2737,0.2746,0.2754,0.2789,0.2799,0.2669,0.2669,0.2669,0,0.2436,0.2454,0.2478,0.2491,0.2508,0.2533,0.2545,0.2561,0.258,0.2596,0.2592,0.2631,0.2632,0.2669,0.2686,0.2679,0.2702,0.2673,0.2744,0.2752,0.276,0.2793,0.2805,0.2671,0.2671,0.267,0.267,0,0.2441,0.2461,0.2473,0.2499,0.2519,0.254,0.2567,0.259,0.2608,0.2625,0.267,0.268,0.2706,0.2713,0.2709,0.2766,0.2766,0.2751,0.2727,0.2773,0.2805,0.2816,0.2674,0.2673,0.2673,0.2672,0,0,0.2421,0.2466,0.247,0.2483,0.2527,0.2541,0.2579,0.2618,0.2656,0.2674,0.2721,0.2745,0.2765,0.2774,0.2781,0.2811,0.2883,0.2806,0.2807,0.284,0.2974,0.2935,0.2943,0.2883,0.2885,0.2887,0.2978,0,0.2416,0.2439,0.2468,0.2494,0.2507,0.2552,0.2587,0.2629,0.2676,0.273,0.2758,0.2808,0.2784,0.2816,0.2841,0.2883,0.2913,0.286,0.2927,0.2929,0.2888,0.2955,0.2726,0.2785,0.2989,0.299,0.2992,0,0.2403,0.2425,0.2446,0.2496,0.2508,0.2533,0.2608,0.2647,0.2734,0.2777,0.2833,0.2865,0.2926,0.2899,0.2978,0.2949,0.2967,0.2985,0.2989,0.2947,0.2911,0.2772,0.2797,0.301,0.3009,0.3007,0.3006,0,0.2363,0.2407,0.2424,0.2439,0.2501,0.2528,0.2572,0.2659,0.2711,0.2824,0.2878,0.2946,0.2998,0.3031,0.3062,0.3036,0.3147,0.3111,0.3089,0.3086,0.2901,0.2878,0.3165,0.3165,0.3165,0.3164,0.3164,0,0.2341,0.2352,0.2409,0.2416,0.2454,0.251,0.2575,0.2641,0.2749,0.2815,0.2901,0.2965,0.3037,0.3098,0.3106,0.314,0.3181,0.3116,0.3115,0.2908,0.2887,0.3082,0.3071,0.3168,0.3167,0.3166,0.3166,0,0.2288,0.2324,0.2345,0.241,0.2433,0.2462,0.2564,0.2619,0.2734,0.283,0.287,0.3007,0.3098,0.3152,0.3231,0.3201,0.3234,0.3228,0.2984,0.2953,0.3137,0.3127,0.3225,0.3225,0.3224,0.3224,0.3224,0,0.226,0.2266,0.2326,0.2344,0.2374,0.2432,0.2478,0.2598,0.2664,0.2835,0.2873,0.3014,0.3091,0.3207,0.32,0.323,0.3254,0.3016,0.2919,0.3158,0.3147,0.3138,0.3129,0.269,0.2685,0.2681,0.2678,0,0.2208,0.2234,0.2255,0.2294,0.2334,0.2376,0.2453,0.2497,0.2638,0.2722,0.2842,0.2926,0.3063,0.3011,0.3068,0.3037,0.2995,0.2942,0.3264,0.2713,0.2661,0.2648,0.2655,0.2644,0.2648,0.265,0.2652,0.2653,0.217,0.2173,0.2207,0.2232,0.2274,0.23,0.2301,0.239,0.2461,0.2552,0.2706,0.2755,0.2821,0.2808,0.2732,0.2676,0.2875,0.2731,0.2739,0.2752,0.2677,0.2627,0.2591,0.2594,0.2596,0.2598,0.26,0,0.2109,0.2122,0.2144,0.2158,0.2154,0.2217,0.2261,0.224,0.2263,0.2387,0.2468,0.2335,0.2339,0.2392,0.2276,0.2291,0.2225,0.2181,0.2067,0.2105,0.2138,0.2027,0.177,0.1767,0.1764,0.1761,0,0,0.2079,0.2064,0.2068,0.2025,0.204,0.2001,0.1999,0.1988,0.2032,0.2031,0.2051,0.2245,0.2352,0.2027,0.1996,0.1861,0.1953,0.1787,0.2466,0.2372,0.24,0.2486,0.2363,0,0,0,0,0]},{"header":{"parameterUnit":"m.s-1","parameterCategory":2,"la1":30.2991,"la2":30.254,"lo1":-89.0895,"lo2":-89.0444,"dy":0.0017,"dx":0.0017,"nx":28,"ny":28,"refTime":"2023-08-30T03:00:00:Z","depth":"2","parameterNumber":3,"parameterNumberName":"V-component_of_CURRENTS"},"data":[0,0,0,0,0,0,0,0,0,0,0,0,0,0,0,0,0,0,0,0,0,0,0,0,0,0,0,0,0,0,0,0,0,0,0,0,0,0,0,0,0,0,0,0,0,0,0,0,0,0,0,0,0,0,0,0,0,0,0.0144,0.0144,0,0.0095,0.0095,0.0094,0.006,0.006,0.0059,0.0059,-0.0029,-0.0031,-0.0033,0,0,0,0,0,0,0,0,0,0,0,0,0,0.0159,0.0159,0.0145,0.0144,0.0143,0.0096,0.0095,0.0094,0.006,0.006,0.0059,0.0059,-0.0028,-0.003,-0.0033,0,0,0,0,0,0,0,0,0,0,0,0,0,0.0135,0.0159,0.0145,0.0121,0.0119,0.0096,0.0095,0.0094,0.006,0.006,0.0059,0.0059,-0.0027,-0.003,-0.0033,-0.0048,0,0,-0.0043,-0.0045,0,0,0,0,0,0,0,0,0.0136,0.0134,0.0125,0.0123,0.012,0.0084,0.0068,0.0045,0.006,0.0081,0.0059,0.0059,0.0006,0.0,-0.0009,-0.0052,-0.0056,-0.0044,-0.0046,-0.0047,-0.0048,0,0,0,0,0,0,0,0.0138,0.0136,0.0124,0.0125,0.0122,0.0096,0.0093,0.0063,0.0044,0.0079,0.0077,0.0073,0.0005,-0.0006,-0.0011,-0.0057,-0.0044,-0.0046,-0.0048,-0.005,-0.0113,-0.0113,0,0,0,0,0,0,0.0149,0.0138,0.0126,0.0123,0.0129,0.0097,0.0093,0.0095,0.0045,0.0038,0.0073,0.0072,-0.0,-0.0008,-0.0015,-0.0024,-0.0047,-0.005,-0.0052,-0.0113,-0.0113,-0.0113,0,0,0,0,0,0,0.0149,0.0149,0.0128,0.0129,0.0125,0.0097,0.01,0.0094,0.0084,0.0042,0.0033,0.0068,-0.0001,-0.001,-0.0034,-0.0028,-0.0051,-0.0054,-0.0114,-0.0113,-0.0113,-0.0051,0,0,0,0,0,0,0.015,0.0149,0.0153,0.013,0.0125,0.0118,0.01,0.0094,0.0082,0.008,0.0035,0.0026,-0.0002,-0.0029,-0.0038,-0.0033,-0.0057,-0.0114,-0.0114,-0.0113,-0.0053,-0.0048,-0.0044,0,0,0,0,0,0.0151,0.0163,0.0154,0.0152,0.0133,0.0119,0.0114,0.0092,0.0083,0.0081,0.0054,0.0028,-0.0032,-0.0031,-0.0041,-0.0038,-0.0114,-0.0114,-0.0113,-0.0055,-0.0049,-0.0044,0,0,0,0,0,0,0.0172,0.016,0.015,0.0157,0.014,0.0113,0.0112,0.0095,0.0073,0.0072,0.003,0.002,0.0001,-0.0027,-0.0026,-0.0055,-0.0078,-0.0079,-0.003,-0.0025,-0.002,-0.0,-0.006,0,0,0,0,0,0.0179,0.0184,0.0164,0.0169,0.0164,0.0138,0.0129,0.0115,0.0093,0.0083,0.0052,0.0021,-0.0004,-0.002,-0.0048,-0.0065,-0.0092,-0.007,-0.0065,-0.0061,-0.0052,-0.0084,-0.0081,-0.0111,-0.0111,-0.0111,0,0,0.0188,0.0183,0.0185,0.0174,0.016,0.0161,0.0132,0.0125,0.0125,0.0076,0.0067,0.0035,-0.0005,-0.002,-0.0032,-0.0044,-0.0067,-0.006,-0.0056,-0.0049,-0.0083,-0.008,-0.0078,-0.011,-0.011,-0.0111,0,0,0.0212,0.0206,0.0217,0.0208,0.0194,0.018,0.018,0.0155,0.0144,0.0128,0.0098,0.0071,0.0029,0.0005,-0.0013,-0.0002,-0.0041,-0.0012,0.0025,-0.0006,-0.0004,-0.0002,-0.0031,-0.0033,-0.0011,-0.001,-0.001,0,0.0222,0.0237,0.0217,0.0225,0.0226,0.0192,0.0206,0.0189,0.0159,0.0157,0.0134,0.0082,0.0042,0.0029,0.0033,0.0009,-0.0012,0.0009,0.0001,0.0002,0.0003,-0.0028,-0.003,-0.0007,-0.0008,-0.0008,-0.0008,0,0.0252,0.0264,0.0271,0.0274,0.027,0.0277,0.0256,0.0248,0.0228,0.0211,0.0191,0.0138,0.011,0.0089,0.0063,0.0053,0.0035,0.0012,-0.001,0.001,-0.0024,-0.0028,-0.0003,-0.0004,-0.0005,-0.0006,0,0,0.0278,0.029,0.0294,0.0309,0.03,0.0304,0.0307,0.0303,0.0317,0.0271,0.0278,0.0221,0.0194,0.0172,0.013,0.0098,0.0077,0.0064,0.0061,0.0042,0.0013,-0.0002,-0.0008,0.0056,0.0056,0.0055,-0.0012,0,0.0307,0.0343,0.0338,0.0373,0.0392,0.0371,0.0379,0.0371,0.036,0.0356,0.0296,0.0284,0.0225,0.0216,0.0174,0.0107,0.0071,0.0098,-0.0008,-0.0011,-0.0022,-0.0011,0.0011,-0.0047,-0.0016,-0.0016,-0.0017,0,0.0339,0.0362,0.0403,0.0435,0.0441,0.0453,0.0475,0.0483,0.0467,0.0456,0.043,0.0385,0.0334,0.0279,0.0169,0.0192,0.0112,0.0049,0.0045,0.0008,-0.0033,-0.0063,-0.0056,-0.0023,-0.0023,-0.0022,-0.0022,0,0.0374,0.041,0.045,0.0458,0.0481,0.0496,0.051,0.0513,0.0545,0.0528,0.0541,0.0467,0.0439,0.0328,0.0197,0.0185,0.0075,0.0038,-0.0054,-0.0057,-0.007,-0.0073,-0.0042,-0.0042,-0.0041,-0.0041,-0.0041,0,0.0411,0.0444,0.0471,0.0492,0.0547,0.0545,0.0606,0.0606,0.0631,0.068,0.0601,0.0616,0.0452,0.0367,0.0231,0.0086,0.0097,-0.0042,-0.0073,-0.0048,-0.0048,-0.0053,-0.0054,-0.0044,-0.0043,-0.0043,-0.0042,0,0.0444,0.0458,0.0511,0.0548,0.0565,0.0608,0.068,0.0729,0.0735,0.0794,0.0793,0.0734,0.0622,0.045,0.0275,0.0143,-0.0005,-0.0062,-0.0021,-0.0045,-0.0127,-0.0124,-0.0174,-0.0175,-0.0176,-0.0177,-0.0177,0,0.0464,0.0494,0.0559,0.0602,0.0622,0.0689,0.0741,0.0777,0.0845,0.0873,0.091,0.0823,0.0783,0.0519,0.0271,0.0031,-0.0003,-0.011,-0.0137,-0.0114,-0.014,-0.0135,-0.013,-0.0135,-0.0135,-0.0135,-0.0135,0,0.0508,0.0529,0.0575,0.0666,0.0729,0.0818,0.0897,0.0964,0.1013,0.1058,0.1104,0.1072,0.0822,0.0593,0.026,0.0094,-0.0073,-0.0122,-0.0107,-0.01,-0.0082,-0.0105,-0.0101,-0.0137,-0.0137,-0.0137,-0.0137,-0.0136,0.0542,0.0587,0.0652,0.0739,0.0822,0.0936,0.1016,0.1106,0.1213,0.1282,0.1249,0.1202,0.0932,0.0516,0.0227,-0.0084,-0.0075,-0.0187,-0.0185,-0.0183,-0.0162,-0.0146,-0.0209,-0.0209,-0.0209,-0.0209,-0.021,0,0.0589,0.0641,0.0724,0.0831,0.0932,0.0972,0.1115,0.1194,0.1319,0.1373,0.1402,0.115,0.0886,0.0568,0.0112,-0.0157,-0.018,-0.0245,-0.0212,-0.0208,-0.0205,-0.0184,-0.0238,-0.0239,-0.024,-0.0241,0,0,0.0616,0.0698,0.0741,0.0904,0.0987,0.113,0.1218,0.1326,0.1399,0.1453,0.1431,0.1367,0.0987,0.0656,0.0286,0.0025,-0.003,-0.003,0.0021,0.0109,0.0115,-0.0144,-0.0104,0,0,0,0,0]}],[{"header":{"parameterUnit":"m.s-1","parameterCategory":2,"la1":30.2991,"la2":30.254,"lo1":-89.0895,"lo2":-89.0444,"dy":0.0017,"dx":0.0017,"nx":28,"ny":28,"refTime":"2023-08-30T03:00:00:Z","depth":"4","parameterNumber":2,"parameterNumberName":"U-component_of_CURRENTS"},"data":[0,0,0,0,0,0,0,0,0,0,0,0,0,0,0,0,0,0,0,0,0,0,0,0,0,0,0,0,0,0,0,0,0,0,0,0,0,0,0,0,0,0,0,0,0,0,0,0,0,0,0,0,0,0,0,0,0,0,0.155,0.1551,0,0.1622,0.1622,0.1623,0.1682,0.1683,0.1684,0.1685,0.176,0.1762,0.1763,0,0,0,0,0,0,0,0,0,0,0,0,0,0.146,0.1462,0.155,0.1551,0.1552,0.1622,0.1622,0.1623,0.1682,0.1683,0.1684,0.1685,0.176,0.1761,0.1763,0,0,0,0,0,0,0,0,0,0,0,0,0,0.151,0.1462,0.155,0.1592,0.1596,0.1621,0.1622,0.1623,0.1682,0.1683,0.1684,0.1685,0.1759,0.1761,0.1763,0.175,0,0,0.1769,0.177,0,0,0,0,0,0,0,0,0.1507,0.1513,0.1584,0.1589,0.1594,0.1646,0.1619,0.1667,0.1681,0.1647,0.1685,0.1686,0.1723,0.1728,0.1735,0.1753,0.1756,0.1769,0.177,0.1771,0.1771,0,0,0,0,0,0,0,0.1504,0.151,0.1576,0.1585,0.1591,0.1606,0.1614,0.1628,0.1675,0.165,0.1655,0.1666,0.1726,0.1733,0.1738,0.1758,0.1769,0.1771,0.1772,0.1772,0.1876,0.1877,0,0,0,0,0,0,0.1498,0.1507,0.1574,0.1579,0.1555,0.1606,0.1616,0.1626,0.1675,0.1685,0.1665,0.1669,0.173,0.1735,0.1741,0.1823,0.1771,0.1773,0.1774,0.1874,0.1876,0.1878,0,0,0,0,0,0,0.1496,0.1504,0.1571,0.1546,0.1556,0.1607,0.1618,0.1627,0.1672,0.1687,0.1696,0.1706,0.1731,0.1738,0.1787,0.1823,0.1773,0.1775,0.1872,0.1875,0.1877,0.1927,0,0,0,0,0,0,0.1493,0.1502,0.1524,0.1546,0.1558,0.1612,0.1618,0.1628,0.1676,0.1682,0.1724,0.1731,0.1732,0.1785,0.1789,0.1825,0.1777,0.187,0.1873,0.1876,0.1923,0.1931,0.1938,0,0,0,0,0,0.149,0.1511,0.1524,0.1534,0.158,0.1613,0.1621,0.1659,0.1677,0.1703,0.1733,0.1731,0.1808,0.1787,0.1792,0.1829,0.1869,0.1872,0.1876,0.192,0.193,0.1937,0,0,0,0,0,0,0.1483,0.152,0.1535,0.1567,0.16,0.1625,0.1658,0.1677,0.1721,0.1739,0.1748,0.1757,0.1816,0.1815,0.1792,0.1869,0.1839,0.1844,0.1871,0.188,0.1887,0.1886,0.1778,0,0,0,0,0,0.149,0.1522,0.155,0.1582,0.1601,0.1635,0.166,0.1685,0.1718,0.1741,0.1767,0.1798,0.1828,0.1849,0.1873,0.191,0.1914,0.1938,0.1945,0.1951,0.1955,0.1992,0.2003,0.189,0.189,0.189,0,0,0.1498,0.1523,0.1542,0.1584,0.1615,0.1644,0.1654,0.1704,0.1735,0.174,0.1802,0.1828,0.1845,0.1892,0.1918,0.19,0.1988,0.1956,0.1961,0.1962,0.1997,0.2008,0.2018,0.1892,0.1892,0.1892,0,0,0.1515,0.1552,0.1579,0.1608,0.166,0.1679,0.17,0.1744,0.1778,0.1829,0.1846,0.1893,0.1935,0.1955,0.1967,0.2026,0.2027,0.2042,0.2075,0.2111,0.2121,0.2129,0.2155,0.2166,0.2042,0.2042,0.2042,0,0.1526,0.1559,0.1594,0.1624,0.1653,0.1697,0.1727,0.1762,0.1819,0.1847,0.1861,0.1944,0.1962,0.2012,0.2039,0.2042,0.2062,0.2039,0.212,0.2128,0.2136,0.2161,0.2171,0.2045,0.2045,0.2044,0.2044,0,0.155,0.1588,0.1611,0.166,0.1695,0.1735,0.1778,0.1827,0.1872,0.1901,0.1979,0.201,0.2058,0.2075,0.2077,0.2144,0.2141,0.2126,0.2095,0.215,0.2173,0.2183,0.2049,0.2048,0.2047,0.2046,0,0,0.1539,0.1613,0.1624,0.165,0.172,0.1745,0.1808,0.1866,0.1915,0.1975,0.2037,0.2093,0.2124,0.2141,0.2159,0.219,0.2264,0.2189,0.2189,0.221,0.235,0.2202,0.2199,0.227,0.2272,0.2274,0.2346,0,0.1551,0.1602,0.1641,0.1697,0.1724,0.1785,0.1836,0.1897,0.196,0.2032,0.208,0.215,0.2144,0.219,0.2221,0.2262,0.2293,0.2246,0.2298,0.23,0.2157,0.2206,0.228,0.2354,0.2356,0.2357,0.2359,0,0.1553,0.159,0.1643,0.1713,0.1734,0.1779,0.1872,0.1925,0.2026,0.2082,0.2157,0.2203,0.2279,0.2266,0.2349,0.2325,0.2346,0.2362,0.2365,0.2214,0.217,0.2287,0.2377,0.2375,0.2374,0.2373,0.2372,0,0.151,0.1586,0.163,0.1654,0.1742,0.179,0.1847,0.1946,0.2001,0.213,0.2189,0.2276,0.2343,0.2381,0.2421,0.2404,0.2498,0.2473,0.2354,0.2344,0.2433,0.2424,0.2525,0.2525,0.2525,0.2525,0.2525,0,0.1487,0.1524,0.162,0.1642,0.1703,0.1776,0.1858,0.1934,0.2047,0.211,0.2218,0.2277,0.238,0.2439,0.2453,0.2431,0.2526,0.2366,0.2353,0.2454,0.2446,0.2441,0.243,0.2527,0.2527,0.2526,0.2526,0,0.1427,0.1492,0.1543,0.1647,0.1684,0.1731,0.1854,0.1905,0.2032,0.2124,0.2173,0.2309,0.2388,0.2455,0.2533,0.2461,0.2463,0.2431,0.2546,0.2537,0.2279,0.2271,0.2302,0.2298,0.2294,0.229,0.2288,0,0.1397,0.142,0.1533,0.1566,0.1621,0.1704,0.1757,0.1888,0.1942,0.2114,0.2142,0.2277,0.2349,0.2339,0.242,0.2437,0.2406,0.2388,0.2316,0.2272,0.2257,0.2255,0.2252,0.2281,0.228,0.2279,0.2278,0,0.1335,0.1392,0.1435,0.1505,0.1568,0.162,0.171,0.1734,0.1879,0.2012,0.2071,0.2116,0.2199,0.2251,0.2285,0.2287,0.2387,0.2347,0.2354,0.2286,0.2247,0.2236,0.2237,0.2265,0.2267,0.2268,0.2269,0,0.1294,0.1306,0.1373,0.142,0.149,0.1508,0.1569,0.1631,0.1698,0.1886,0.1903,0.2043,0.2179,0.2174,0.22,0.2197,0.216,0.2078,0.2099,0.2115,0.2017,0.1939,0.1854,0,0,0,0,0,0.124,0.124,0.1279,0.1315,0.1378,0.142,0.152,0.1584,0.1725,0.1721,0.1807,0.1876,0.1927,0.2001,0.196,0.211,0.2163,0.2052,0.2077,0.219,0.2205,0.2106,0,0,0,0,0,0,0.12,0.1234,0.124,0.1216,0.1225,0.1277,0.1335,0.1433,0.144,0.1597,0.164,0.1762,0.1845,0.1937,0.1927,0.1947,0.1923,0.2144,0.2139,0.2181,0.2195,0.2208,0.2111,0,0,0,0,0]},{"header":{"parameterUnit":"m.s-1","parameterCategory":2,"la1":30.2991,"la2":30.254,"lo1":-89.0895,"lo2":-89.0444,"dy":0.0017,"dx":0.0017,"nx":28,"ny":28,"refTime":"2023-08-30T03:00:00:Z","depth":"4","parameterNumber":3,"parameterNumberName":"V-component_of_CURRENTS"},"data":[0,0,0,0,0,0,0,0,0,0,0,0,0,0,0,0,0,0,0,0,0,0,0,0,0,0,0,0,0,0,0,0,0,0,0,0,0,0,0,0,0,0,0,0,0,0,0,0,0,0,0,0,0,0,0,0,0,0,0.0162,0.0162,0,0.0125,0.0125,0.0124,0.0103,0.0103,0.0103,0.0103,0.004,0.0038,0.0037,0,0,0,0,0,0,0,0,0,0,0,0,0,0.017,0.017,0.0162,0.0162,0.0161,0.0125,0.0125,0.0124,0.0103,0.0103,0.0103,0.0103,0.004,0.0038,0.0036,0,0,0,0,0,0,0,0,0,0,0,0,0,0.0152,0.017,0.0162,0.0147,0.0145,0.0125,0.0125,0.0124,0.0103,0.0103,0.0103,0.0103,0.0041,0.0039,0.0036,0.002,0,0,0.0028,0.0027,0,0,0,0,0,0,0,0,0.0153,0.0152,0.015,0.0148,0.0146,0.012,0.0104,0.0088,0.0103,0.0118,0.0103,0.0103,0.0065,0.006,0.0052,0.0017,0.0015,0.0028,0.0027,0.0026,0.0025,0,0,0,0,0,0,0,0.0155,0.0153,0.0147,0.0149,0.0147,0.0127,0.0125,0.0101,0.0091,0.0117,0.0116,0.0113,0.0063,0.0055,0.0051,0.0014,0.0028,0.0026,0.0024,0.0023,-0.003,-0.003,0,0,0,0,0,0,0.0163,0.0155,0.0148,0.0146,0.0151,0.0127,0.0125,0.0127,0.0092,0.0087,0.0113,0.0112,0.0059,0.0054,0.0048,0.0041,0.0026,0.0023,0.0022,-0.0031,-0.003,-0.003,0,0,0,0,0,0,0.0164,0.0163,0.0149,0.0149,0.0146,0.0127,0.013,0.0127,0.012,0.0089,0.0083,0.0111,0.0059,0.0052,0.0033,0.0038,0.0022,0.002,-0.0031,-0.003,-0.003,0.0018,0,0,0,0,0,0,0.0164,0.0164,0.0169,0.015,0.0147,0.0141,0.013,0.0126,0.0119,0.0117,0.0085,0.0079,0.0059,0.0037,0.0031,0.0034,0.0018,-0.0031,-0.0031,-0.003,0.0016,0.002,0.0023,0,0,0,0,0,0.0165,0.0173,0.0169,0.0168,0.0155,0.0142,0.0138,0.0123,0.0119,0.0117,0.0098,0.008,0.0034,0.0036,0.0028,0.0031,-0.0031,-0.0031,-0.003,0.0015,0.0019,0.0023,0,0,0,0,0,0,0.018,0.0172,0.0167,0.0173,0.016,0.0138,0.0138,0.0126,0.011,0.0111,0.0081,0.0073,0.0059,0.0037,0.0039,0.0015,-0.0002,-0.0003,0.0035,0.0039,0.0042,0.0058,0.0016,0,0,0,0,0,0.0186,0.0191,0.0176,0.0181,0.0177,0.0158,0.0151,0.0142,0.0125,0.0118,0.0096,0.0073,0.0053,0.0041,0.002,0.0005,-0.0019,0.0001,0.0004,0.0007,0.0015,-0.0016,-0.0015,-0.003,-0.003,-0.003,0,0,0.0193,0.019,0.0193,0.0184,0.0175,0.0174,0.0154,0.0149,0.0149,0.0113,0.0107,0.0083,0.0052,0.0039,0.003,0.0021,-0.0002,0.0007,0.001,0.0016,-0.0016,-0.0014,-0.0013,-0.003,-0.003,-0.003,0,0,0.0209,0.0208,0.0216,0.0209,0.0199,0.0189,0.0189,0.017,0.0163,0.0151,0.0129,0.0109,0.0077,0.0058,0.0043,0.0049,0.0018,0.0042,0.0069,0.004,0.0041,0.0042,0.0012,0.001,0.0042,0.0042,0.0042,0,0.0217,0.0228,0.0215,0.022,0.0222,0.0199,0.0208,0.0195,0.0173,0.0172,0.0156,0.0116,0.0086,0.0073,0.0076,0.0057,0.0037,0.0059,0.0045,0.0045,0.0045,0.0015,0.0012,0.0044,0.0044,0.0044,0.0044,0,0.0235,0.0246,0.0251,0.0254,0.0252,0.0257,0.0242,0.0237,0.0226,0.0214,0.0199,0.0156,0.0135,0.0118,0.0099,0.0087,0.0072,0.0054,0.0038,0.005,0.0017,0.0013,0.0048,0.0047,0.0046,0.0045,0,0,0.0249,0.0262,0.0264,0.0278,0.0274,0.0277,0.028,0.0279,0.0291,0.0256,0.0262,0.0218,0.0199,0.0181,0.0148,0.0119,0.0095,0.0093,0.009,0.007,0.0032,0.002,0.0014,0.0078,0.0078,0.0078,0.0009,0,0.0267,0.0293,0.0292,0.0321,0.0335,0.0325,0.0332,0.0329,0.0322,0.032,0.0273,0.0265,0.0222,0.0215,0.0178,0.012,0.0087,0.0115,0.0019,0.0016,0.0009,0.001,0.0076,0.0006,0.0005,0.0004,0.0004,0,0.0284,0.0303,0.0336,0.0366,0.0372,0.0384,0.0407,0.0414,0.0404,0.0397,0.0376,0.0343,0.0298,0.0258,0.016,0.0183,0.0116,0.0062,0.0058,0.0029,-0.0003,-0.0009,-0.0004,-0.0004,-0.0003,-0.0002,-0.0002,0,0.0304,0.0335,0.0368,0.0377,0.0401,0.0418,0.0433,0.044,0.0464,0.0452,0.0462,0.0401,0.0374,0.0283,0.0172,0.0169,0.006,0.0038,-0.0039,-0.0041,-0.0031,-0.0031,-0.0032,-0.0032,-0.0032,-0.0032,-0.0031,0,0.0323,0.0351,0.0384,0.0401,0.0449,0.0455,0.0507,0.051,0.0531,0.0565,0.0509,0.0508,0.038,0.0302,0.0194,0.0068,0.0073,-0.0032,-0.0058,-0.001,-0.0007,-0.0034,-0.0033,-0.0034,-0.0034,-0.0033,-0.0033,0,0.0337,0.0355,0.0401,0.0441,0.0461,0.0498,0.0565,0.0602,0.0612,0.0651,0.065,0.0591,0.0485,0.0349,0.0197,0.0102,-0.0023,-0.0071,-0.0004,-0.0026,-0.0111,-0.0107,-0.0161,-0.0162,-0.0163,-0.0164,-0.0164,0,0.0345,0.0369,0.0436,0.0473,0.0496,0.0557,0.0602,0.0639,0.0685,0.07,0.0717,0.0635,0.0571,0.0356,0.0203,-0.0008,-0.0043,-0.0109,-0.0116,-0.0103,-0.0123,-0.0118,-0.0113,-0.0165,-0.0166,-0.0166,-0.0166,0,0.0363,0.0389,0.0429,0.0508,0.0565,0.0639,0.0706,0.0742,0.0782,0.0791,0.0774,0.0662,0.0539,0.0362,0.0197,0.0045,-0.0067,-0.0119,-0.0118,-0.0125,-0.0109,-0.0127,-0.0122,-0.0169,-0.0169,-0.0168,-0.0168,0,0.038,0.0413,0.047,0.054,0.0619,0.0696,0.073,0.0777,0.082,0.0829,0.082,0.0687,0.0614,0.0389,0.0239,0.0086,0.004,-0.0015,-0.0021,-0.002,0.0035,0.0078,0.0056,0,0,0,0,0,0.0393,0.0433,0.0498,0.0577,0.0657,0.0709,0.0789,0.0818,0.0849,0.0845,0.0837,0.0722,0.0502,0.0413,0.0257,0.0206,0.0002,0.0016,-0.0067,-0.0185,-0.0182,-0.0143,0,0,0,0,0,0,0.0401,0.0461,0.0496,0.0597,0.0657,0.0752,0.0807,0.0829,0.083,0.0833,0.0724,0.0675,0.0464,0.0591,0.0252,0.0206,0.0129,-0.0083,-0.0086,-0.0187,-0.0184,-0.0181,-0.014,0,0,0,0,0]}]]